This is the latest recevied weather packets stored in our database for station/object JH5EWP-13. If no packets are shown the sender has not sent any weather packets the latest 10 day(s).
| Time | Temp. | Humidity | Pressure | Rain* | Wind** | Luminosity | Snow |
|---|---|---|---|---|---|---|---|
| 1778229383 | 21.11° C | 41% | 1001.7 hPa | 0 mm | - | - | - |
| 1778228483 | 20.56° C | 48% | 1001.4 hPa | 0 mm | - | - | - |
| 1778227583 | 20.56° C | 46% | 1001.2 hPa | 0 mm | - | - | - |
| 1778226683 | 21.11° C | 47% | 1000.9 hPa | 0 mm | - | - | - |
| 1778225783 | 21.67° C | 43% | 1000.9 hPa | 0 mm | - | - | - |
| 1778224882 | 21.67° C | 46% | 1000.6 hPa | 0 mm | - | - | - |
| 1778223982 | 21.67° C | 45% | 1000.5 hPa | 0 mm | - | - | - |
| 1778223083 | 22.22° C | 50% | 1000.5 hPa | 0 mm | - | - | - |
| 1778222184 | 21.67° C | 52% | 1000.5 hPa | 0 mm | - | - | - |
| 1778221283 | 22.22° C | 48% | 1000.6 hPa | 0 mm | - | - | - |
| 1778220384 | 22.22° C | 48% | 1000.5 hPa | 0 mm | - | - | - |
| 1778219483 | 22.22° C | 49% | 1000.7 hPa | 0 mm | - | - | - |
| 1778218584 | 22.22° C | 48% | 1000.7 hPa | 0 mm | - | - | - |
| 1778217684 | 21.67° C | 52% | 1000.8 hPa | 0 mm | - | - | - |
| 1778216784 | 22.22° C | 52% | 1000.7 hPa | 0 mm | - | - | - |
| 1778215883 | 22.22° C | 52% | 1001 hPa | 0 mm | - | - | - |
| 1778214982 | 22.78° C | 49% | 1000.8 hPa | 0 mm | - | - | - |
| 1778214084 | 22.22° C | 53% | 1000.7 hPa | 0 mm | - | - | - |
| 1778213184 | 22.22° C | 52% | 1001 hPa | 0 mm | - | - | - |
| 1778212283 | 22.22° C | 53% | 1001 hPa | 0 mm | - | - | - |
| 1778211383 | 21.67° C | 52% | 1001.1 hPa | 0 mm | - | - | - |
| 1778210483 | 21.11° C | 52% | 1001 hPa | 0 mm | - | - | - |
| 1778209583 | 21.11° C | 52% | 1001 hPa | 0 mm | - | - | - |
| 1778208683 | 21.11° C | 57% | 1001 hPa | 0 mm | - | - | - |
| 1778207784 | 21.11° C | 62% | 1001.3 hPa | 0 mm | - | - | - |
* Rain latest hour (hover to see other rain measurements)
** Current wind speed in m/s (hover to see current wind gust speed)